Location: Jaite
(41.2884°N, 81.5737°W)
Time: 01:10:26
(UTC+00:00)

COSMOS 2428 - Pass Details

Date: 18 January 2020
Orbit: 844 x 858 km, 70.9° (Epoch: 22 February)

Event Time Altitude Azimuth Distance (km) Brightness Sun altitude
Rises 00:35:48 0° 327° (NNW) 3,438 6.2 -24.4°
Reaches altitude 10° 00:38:28 10° 318° (NW) 2,498 5.6 -24.9°
Maximum altitude 00:43:34 34° 256° (WSW) 1,379 4.3 -25.9°
Drops below altitude 10° 00:48:38 10° 193° (SSW) 2,481 5.3 -26.8°
Sets 00:51:17 0° 184° (S) 3,412 6.0 -27.3°
